Cleveland, OH (44137)

9:11 AM EST on February 11, 2016 (GMT -0500)
Garfield Hts | | Change Station
CLOSE
Current Station
Personal Weather Station
Location: Garfield Heights, OH
Elevation: 908 ft
Nearby Weather Stations
Active Advisory: Lake Effect Snow Advisory Active Notice: Local Storm Report

Elev 908 ft 41.41 °N, 81.59 °W | Updated 4 seconds ago

Overcast
Overcast
15.6 °F
Feels Like 6 °F
N
7.0
Wind Variable Wind from NW
Gusts 19.0 mph

Today
High -- | Low -- °F
--% Chance of Precip.
Yesterday
High -- | Low -- °F
Precip. -- in
Pressure 30.16 in
Visibility 10.0 miles
Clouds Mostly Cloudy 3900 ft
Overcast 5000 ft
Windchill 6 °F
Dew Point 6 °F
Humidity 66%
Rainfall 0.00 in
Snow Depth Not available.
7:27 AM 5:54 PM
Waxing Crescent, 12% visible
METAR KBKL 111353Z 30022KT 10SM BKN039 OVC050 M08/M16 A3013 RMK AO2 PK WND 30030/1330 SLP213 T10781156
Pressure 30.16 in
Visibility 10.0 miles
Clouds Mostly Cloudy 3900 ft
Overcast 5000 ft
Windchill 6 °F
Dew Point 6 °F
Humidity 66%
Rainfall 0.00 in
Snow Depth Not available.
7:27 AM 5:54 PM
Waxing Crescent, 12% visible
METAR KBKL 111353Z 30022KT 10SM BKN039 OVC050 M08/M16 A3013 RMK AO2 PK WND 30030/1330 SLP213 T10781156

10-Day Weather Forecast

Almanac

Astronomy

Feb. 11, 2016 Rise Set
Actual Time
Civil Twilight
Nautical Twilight
Astronomical Twilight
Moon
Length of Visible Light
Length of Day
Tomorrow will be .
, % of the Moon is Illuminated

Today's Extremes

State Highs State Lows

Community

WunderPhotos

Upload Photos

1,892,048 photos uploaded!

WunderBlog® & News

Nearby

Air Quality

  Air Quality AQ Index Pollutant
Not available.

Snow Depth

Station Depth Elevation

Earthquake Activity

City Distance Mag. Time & Date
Minimum magnitude displayed is 2.5.

Coastal Water Temperatures

Place Temperature

Stations

Nearby Weather Stations

Station Location Temp. Windchill Dew Point Humidity Wind Precip. Elev Updated Type
                   

Watches & Warnings

Lake Effect Snow Advisory
Issued: 3:08 AM EST Feb. 11, 2016 – National Weather Service

... Lake effect Snow Advisory now in effect until 10 am EST this
morning...

* accumulations... additional accumulations of 1 to locally 3 inches
are possible on the eastern end of Cuyahoga County. Western
areas will see less than an additional inch of snow.

* Timing... snow showers will diminish later this morning.

* Impacts... snow covered roads and reduced visibility during
heavier snow showers and squalls.

* Winds... northwest 15 to 25 mph with gusts up to 30 mph.

* Temperatures... 12 to 18.

Precautionary/preparedness actions...

In lake effect snow the weather can vary from locally heavy snow
in narrow bands to dry weather just a few miles away. If you will
be traveling across the region be prepared for rapid changes in
Road and visibility conditions. Stay tuned to NOAA Weather Radio
for further details or updates.